Total_Precipitation_Accumulation
0.06 0.10 0.16 0.23 0.23 0.17 0.14 0.12 0.15 0.20 0.35 0.56 0.77 0.91 0.99 1.04 1.09 1.01 0.99 1.04 1.05 1.15 1.30 1.41 1.52 1.51 1.51 1.62 1.72 1.94 2.30 2.51 2.72 2.82 2.89 3.04 3.07 3.04 3.05 2.97 2.86 3.06 3.12 3.10
0.08 0.10 0.11 0.15 0.20 0.17 0.14 0.14 0.16 0.21 0.39 0.55 0.80 0.89 0.98 0.99 1.04 1.05 1.14 1.23 1.31 1.36 1.45 1.51 1.60 1.71 1.77 1.81 1.95 2.18 2.62 2.98 3.14 3.23 3.28 3.32 3.37 3.33 3.33 3.26 3.38 3.42 3.25 3.18
0.10 0.13 0.17 0.23 0.21 0.20 0.19 0.18 0.23 0.31 0.46 0.60 0.78 0.98 1.09 0.99 0.89 0.96 1.09 1.19 1.28 1.41 1.55 1.64 1.76 1.84 1.98 2.10 2.22 2.40 2.68 2.91 3.03 3.13 3.21 3.36 3.37 3.39 3.41 3.45 3.44 3.43 3.47 3.40
0.19 0.21 0.31 0.31 0.31 0.31 0.30 0.32 0.37 0.51 0.68 0.79 0.85 0.95 0.99 0.90 0.93 1.00 1.10 1.21 1.32 1.40 1.62 1.80 1.99 2.22 2.51 2.67 2.80 2.81 2.91 3.05 3.13 3.10 3.15 3.22 3.21 3.10 3.14 3.30 3.31 3.25 3.21 3.16
0.31 0.33 0.34 0.37 0.43 0.44 0.48 0.61 0.65 0.81 0.99 1.09 1.08 1.04 1.16 1.07 1.05 1.14 1.29 1.46 1.66 1.85 1.96 2.07 2.15 2.29 2.55 2.86 3.01 3.04 2.93 3.02 3.14 3.23 3.33 3.25 3.17 3.18 3.20 3.27 3.19 3.13 3.10 3.14
0.45 0.51 0.57 0.54 0.54 0.54 0.63 1.10 0.96 1.04 1.21 1.35 1.46 1.79 1.79 1.48 1.51 1.48 1.46 1.60 1.78 1.97 2.07 2.09 2.20 2.27 2.38 2.60 2.72 2.80 2.86 3.00 3.12 3.23 3.40 3.51 3.47 3.52 3.47 3.38 3.30 3.30 3.25 3.24
0.57 0.66 0.69 0.61 0.56 0.65 1.21 1.68 1.40 1.34 1.43 1.56 1.76 1.85 1.77 1.62 1.69 1.70 1.54 1.54 1.60 1.65 1.81 1.90 1.97 2.09 2.28 2.38 2.36 2.47 2.58 2.64 2.82 3.07 3.31 3.48 3.59 3.60 3.62 3.54 3.42 3.21 3.06 3.02
0.84 1.06 1.19 0.79 0.71 1.11 1.54 1.52 1.65 1.58 1.61 1.73 1.78 1.83 1.87 1.88 1.82 1.72 1.62 1.52 1.52 1.60 1.73 1.84 1.99 2.28 2.51 2.51 2.45 2.47 2.57 2.70 2.85 3.09 3.18 3.24 3.40 3.44 3.59 3.57 3.46 3.35 3.12 2.92
1.33 1.49 1.31 0.98 1.06 1.19 1.24 1.47 1.60 1.68 1.74 1.79 1.77 1.79 1.75 1.75 1.71 1.74 1.65 1.64 1.59 1.61 1.75 2.00 2.24 2.50 2.75 2.75 2.77 2.79 2.82 2.93 3.04 3.14 3.24 3.35 3.43 3.43 3.44 3.44 3.30 3.18 3.00 2.87
1.63 1.81 1.57 1.32 1.26 1.31 1.38 1.56 1.73 1.86 1.96 1.94 1.84 1.76 1.83 1.89 1.76 1.79 1.78 1.69 1.67 1.70 1.81 2.02 2.16 2.27 2.51 2.68 2.72 2.89 2.89 2.83 2.87 2.90 2.97 3.07 3.20 3.25 3.24 3.16 3.09 2.98 2.84 2.76
2.00 2.21 2.04 1.81 1.61 1.56 1.61 1.88 2.12 2.11 2.02 1.90 1.89 1.88 1.99 2.01 1.87 1.78 1.74 1.75 1.76 1.82 1.93 1.99 2.01 2.07 2.22 2.42 2.56 2.76 2.92 2.94 2.98 3.00 3.08 3.16 3.25 3.36 3.28 3.08 3.00 2.86 2.67 2.68
2.36 2.25 2.34 2.22 1.83 1.77 1.82 2.03 2.20 2.15 2.11 2.08 2.06 1.99 1.88 1.82 1.75 1.72 1.73 1.78 1.87 1.96 1.99 1.99 1.98 2.09 2.25 2.49 2.72 2.95 2.95 2.89 2.94 3.03 3.11 3.21 3.28 3.30 3.35 3.04 2.93 2.76 2.67 2.61
1.96 2.04 2.12 2.05 1.94 1.98 2.05 2.14 2.25 2.24 2.11 2.11 2.14 2.05 1.86 1.72 1.66 1.67 1.73 1.75 1.87 1.98 1.97 1.94 1.92 2.08 2.28 2.51 2.77 2.98 2.98 2.98 2.97 2.92 2.96 3.02 2.99 2.90 2.93 2.86 2.68 2.61 2.52 2.41
2.03 2.14 2.30 2.29 2.25 2.20 2.35 2.43 2.43 2.38 2.30 2.22 2.16 2.03 1.88 1.91 1.88 1.82 1.83 1.88 1.84 1.80 1.77 1.84 1.89 1.90 2.04 2.25 2.58 2.86 2.92 2.99 3.03 2.97 2.87 2.85 2.77 2.70 2.63 2.61 2.48 2.33 2.27 2.23
2.14 2.12 2.29 2.24 2.28 2.30 2.42 2.59 2.65 2.63 2.54 2.36 2.16 2.01 1.83 1.86 2.06 2.08 2.08 2.13 2.00 1.85 1.81 1.82 1.79 1.73 1.76 1.89 2.10 2.45 2.63 2.59 2.57 2.58 2.54 2.53 2.45 2.36 2.27 2.21 2.26 2.31 2.19 2.10
2.02 2.09 2.12 2.22 2.24 2.20 2.23 2.34 2.48 2.51 2.46 2.31 2.12 2.02 1.86 1.83 1.90 1.95 2.05 2.10 2.14 2.04 1.90 1.80 1.82 1.79 1.68 1.80 1.94 2.03 2.13 2.28 2.19 2.08 2.10 2.13 2.13 2.14 2.09 2.09 2.17 2.30 2.25 2.05
2.09 2.21 2.19 2.23 2.22 2.16 2.05 2.11 2.22 2.24 2.24 2.20 2.07 1.91 1.80 1.80 1.92 1.97 2.00 1.93 1.84 1.82 1.74 1.67 1.67 1.68 1.65 1.78 1.86 1.81 1.74 1.78 1.84 1.68 1.73 1.88 1.97 2.00 2.03 2.11 2.17 2.17 2.07 1.92
1.89 1.96 2.04 2.08 2.00 2.03 2.03 2.04 2.09 2.01 2.05 2.01 1.90 1.81 1.80 1.94 2.11 2.13 1.96 1.79 1.72 1.71 1.65 1.54 1.42 1.33 1.37 1.43 1.46 1.43 1.37 1.37 1.41 1.41 1.52 1.65 1.72 1.79 1.88 1.95 1.99 2.00 1.89 1.74
1.78 1.68 1.68 1.70 1.61 1.73 1.89 1.89 1.95 1.93 1.97 1.92 1.85 1.89 1.91 1.98 2.01 1.97 1.78 1.74 1.76 1.71 1.59 1.47 1.45 1.21 1.16 1.17 1.23 1.22 1.26 1.33 1.38 1.40 1.50 1.56 1.54 1.58 1.75 1.85 1.88 1.87 1.80 1.72
1.69 1.55 1.49 1.51 1.46 1.50 1.63 1.63 1.62 1.66 1.69 1.74 1.91 1.96 1.89 1.84 1.75 1.72 1.69 1.71 1.66 1.53 1.42 1.36 1.27 1.25 1.25 1.24 1.28 1.21 1.24 1.29 1.33 1.31 1.32 1.37 1.43 1.48 1.54 1.59 1.63 1.66 1.66 1.61
1.50 1.41 1.38 1.46 1.51 1.43 1.46 1.44 1.47 1.49 1.54 1.62 1.78 1.85 1.79 1.73 1.64 1.69 1.82 1.79 1.60 1.38 1.31 1.36 1.26 1.23 1.22 1.27 1.24 1.16 1.20 1.27 1.31 1.41 1.46 1.49 1.49 1.50 1.51 1.46 1.46 1.50 1.53 1.58
1.56 1.42 1.32 1.30 1.40 1.43 1.35 1.29 1.28 1.28 1.35 1.44 1.44 1.53 1.70 1.81 1.73 1.72 1.75 1.76 1.60 1.58 1.34 1.24 1.20 1.24 1.28 1.25 1.19 1.28 1.32 1.40 1.49 1.57 1.63 1.66 1.71 1.69 1.63 1.58 1.57 1.53 1.58 1.64
1.66 1.55 1.48 1.45 1.47 1.53 1.38 1.28 1.21 1.23 1.31 1.35 1.33 1.42 1.59 1.73 1.74 1.73 1.65 1.49 1.38 1.50 1.35 1.27 1.33 1.32 1.28 1.21 1.29 1.44 1.46 1.49 1.54 1.59 1.65 1.70 1.78 1.82 1.80 1.76 1.79 1.76 1.76 1.82
1.77 1.58 1.50 1.43 1.38 1.43 1.44 1.34 1.25 1.23 1.22 1.25 1.28 1.36 1.51 1.59 1.57 1.46 1.38 1.36 1.30 1.30 1.21 1.31 1.37 1.33 1.27 1.22 1.37 1.46 1.48 1.54 1.58 1.60 1.60 1.65 1.70 1.71 1.79 1.83 1.83 1.81 1.82 1.84
1.87 1.69 1.56 1.46 1.45 1.39 1.38 1.34 1.28 1.18 1.12 1.15 1.12 1.18 1.28 1.42 1.52 1.43 1.34 1.26 1.24 1.19 1.18 1.29 1.33 1.37 1.30 1.31 1.37 1.42 1.47 1.62 1.70 1.66 1.61 1.67 1.69 1.71 1.76 1.78 1.73 1.69 1.70 1.76
1.96 1.85 1.74 1.58 1.41 1.32 1.30 1.32 1.34 1.32 1.26 1.20 1.15 1.18 1.24 1.29 1.33 1.40 1.43 1.34 1.26 1.25 1.24 1.27 1.28 1.31 1.29 1.34 1.43 1.44 1.45 1.57 1.66 1.66 1.65 1.65 1.68 1.71 1.67 1.62 1.57 1.57 1.59 1.59
1.87 1.82 1.76 1.65 1.51 1.36 1.32 1.35 1.39 1.38 1.36 1.39 1.36 1.33 1.39 1.37 1.36 1.38 1.32 1.26 1.21 1.22 1.26 1.27 1.26 1.23 1.18 1.16 1.18 1.22 1.27 1.31 1.37 1.48 1.57 1.60 1.57 1.54 1.49 1.46 1.46 1.44 1.43 1.40